TimeCST,TemperatureF,Dew PointF,Humidity,Sea Level PressureIn,VisibilityMPH,Wind Direction,Wind SpeedMPH,Gust SpeedMPH,PrecipitationIn,Events,Conditions,WindDirDegrees,DateUTC
12:53 AM,14.0,7.0,74,30.26,10.0,South,4.6,-,N/A,,Overcast,170,2014-02-08 06:53:00
1:22 AM,14.0,7.0,74,30.21,10.0,SSE,5.8,-,N/A,,Overcast,160,2014-02-08 07:22:00
1:53 AM,14.0,8.1,77,30.25,10.0,South,4.6,-,N/A,,Overcast,170,2014-02-08 07:53:00
2:53 AM,14.0,8.1,77,30.23,10.0,South,4.6,-,N/A,,Overcast,170,2014-02-08 08:53:00
3:53 AM,15.1,9.0,77,30.21,10.0,South,4.6,-,N/A,,Overcast,170,2014-02-08 09:53:00
4:53 AM,15.1,10.0,80,30.19,10.0,South,4.6,-,N/A,,Overcast,170,2014-02-08 10:53:00
5:02 AM,15.1,10.0,80,30.15,10.0,South,5.8,-,N/A,,Overcast,180,2014-02-08 11:02:00
5:53 AM,16.0,10.0,77,30.21,10.0,South,4.6,-,N/A,,Overcast,180,2014-02-08 11:53:00
6:53 AM,16.0,10.0,77,30.19,10.0,SSE,8.1,-,N/A,,Overcast,160,2014-02-08 12:53:00
7:53 AM,16.0,10.0,77,30.19,10.0,SSW,3.5,-,N/A,,Overcast,210,2014-02-08 13:53:00
8:53 AM,19.0,12.0,74,30.17,10.0,SW,5.8,-,N/A,,Overcast,220,2014-02-08 14:53:00
9:53 AM,19.0,12.9,77,30.19,9.0,SSE,3.5,-,N/A,,Overcast,160,2014-02-08 15:53:00
10:53 AM,21.0,15.1,78,30.18,9.0,SSW,9.2,-,N/A,,Overcast,200,2014-02-08 16:53:00
11:53 AM,21.9,16.0,78,30.16,8.0,SSW,10.4,-,N/A,,Overcast,210,2014-02-08 17:53:00
12:53 PM,24.1,18.0,77,30.14,7.0,SSW,8.1,-,N/A,,Overcast,210,2014-02-08 18:53:00
1:53 PM,26.1,19.9,78,30.10,6.0,WSW,9.2,-,N/A,,Haze,240,2014-02-08 19:53:00
2:53 PM,27.0,19.9,75,30.09,7.0,SW,11.5,-,N/A,,Overcast,230,2014-02-08 20:53:00
3:53 PM,27.0,19.9,75,30.12,7.0,WSW,9.2,-,N/A,,Overcast,250,2014-02-08 21:53:00
4:53 PM,26.1,19.9,78,30.13,6.0,West,5.8,-,N/A,,Haze,280,2014-02-08 22:53:00
5:53 PM,26.1,19.9,78,30.14,6.0,WNW,4.6,-,N/A,,Haze,290,2014-02-08 23:53:00
6:53 PM,25.0,19.9,81,30.16,7.0,NW,4.6,-,N/A,,Overcast,310,2014-02-09 00:53:00
7:53 PM,25.0,19.9,81,30.17,7.0,North,5.8,-,N/A,,Overcast,350,2014-02-09 01:53:00
8:53 PM,25.0,19.9,81,30.18,6.0,NNE,3.5,-,N/A,,Haze,20,2014-02-09 02:53:00
9:53 PM,21.0,17.1,85,30.19,6.0,North,4.6,-,N/A,,Overcast,360,2014-02-09 03:53:00
10:42 PM,21.9,18.0,85,30.16,6.0,Calm,Calm,-,N/A,,Scattered Clouds,0,2014-02-09 04:42:00
10:53 PM,21.9,18.0,85,30.19,6.0,Calm,Calm,-,N/A,,Partly Cloudy,0,2014-02-09 04:53:00
11:29 PM,15.1,12.9,91,30.18,4.0,NW,6.9,-,N/A,,Mostly Cloudy,320,2014-02-09 05:29:00
11:53 PM,18.0,14.0,84,30.22,5.0,NNW,3.5,-,N/A,,Overcast,330,2014-02-09 05:53:00